Find Starlink 30162

NORAD ID: 57446 Int'l Des: 2023-105 Owner: SPXS Country: US Constellation: starlink operational
LEOCIRCULAR

現在のビュー

3D地球を読み込み中...

About Starlink 30162

Starlink 30162 (NORAD 57446) is a starlink constellation satellite (v2 mini) launched Jul 24, 2023 by SPXS of US. It operates in LEO, CIRCULAR orbit with a mass of 730.00 kg.

次回通過

Passes for default location (London). Set your location on the main map for personalized predictions.

高度履歴

Loading altitude history...

軌道要素

1 57446U 23105S 26264.27119915 -.00000806 00000-0 -19762-4 0 9997
2 57446 43.0020 224.2614 0000890 270.9343 89.1406 15.27573132175628
Epoch: Sep 21, 2026 • Age: 23 hours

現在のステータス

高度 483.0 km
遠地点 / 近地点 N/A
速度 7.63 km/s
衛星直下点 -0.29°S, 40.85°W
打ち上げ日 Jul 24, 2023
運用期間 3.1 years
タイプ internet

技術仕様

分類 Payload
質量 730.00 kg
乾燥質量 700.00 kg
長さ 0.30 m
スパン 29.00 m
形状 ? Box + pan
製造者 SPXS
バスタイプ Starlink V2M
フェーズステータス In Orbit
所有者/国 SPXS/US

Most Searched